FW9819 Weather Reports


time (UTC)temp
F
wind
direction
speed
knots
gust
knots
rain 1hr
in
rain 24hr
in
rain mn
in
humidity
%
barometer
mb
20260508024616 69 207 0.0 3.5 0.00 0.00 0.00 28 1016.6
20260508023037 70 261 0.9 3.5 0.00 0.00 0.00 26 1016.5
20260508021522 70 296 0.0 3.5 0.00 0.00 0.00 29 1016.3
20260508020006 71 345 0.0 6.1 0.00 0.00 0.00 29 1016.4
20260508014553 70 340 0.9 4.3 0.00 0.00 0.00 27 1016.4
20260508013034 71 347 1.7 4.3 0.00 0.00 0.00 27 1016.5
20260508011514 72 76 1.7 7.8 0.00 0.00 0.00 26 1016.6
20260508010059 74 252 0.9 7.8 0.00 0.00 0.00 25 1016.7
20260508004548 75 337 1.7 7.0 0.00 0.00 0.00 24 1016.7
20260508003024 75 278 1.7 5.2 0.00 0.00 0.00 25 1016.7
20260508001527 75 250 1.7 4.3 0.00 0.00 0.00 26 1016.7
20260508000053 75 141 1.7 5.2 0.00 0.00 0.00 27 1016.5
20260507234538 75 248 0.9 7.0 0.00 0.00 0.00 26 1016.4
20260507233022 76 318 1.7 5.2 0.00 0.00 0.00 25 1016.6
20260507231504 77 116 1.7 6.1 0.00 0.00 0.00 26 1016.6
20260507230050 78 279 0.9 3.5 0.00 0.00 0.00 27 1016.6
20260507224520 77 309 2.6 7.0 0.00 0.00 0.00 28 1016.8
20260507223058 76 278 1.7 6.1 0.00 0.00 0.00 30 1016.9
20260507221541 76 277 1.7 4.3 0.00 0.00 0.00 31 1017.2
20260507220020 76 261 0.9 7.8 0.00 0.00 0.00 32 1017.3
20260507214558 77 69 1.7 7.8 0.00 0.00 0.00 28 1017.3
20260507214502 77 260 1.7 7.8 0.00 0.00 0.00 29 1017.4
20260507213043 77 99 0.0 4.3 0.00 0.00 0.00 31 1017.4
20260507211520 76 290 0.9 4.3 0.00 0.00 0.00 32 1017.6
20260507210005 76 167 0.9 4.3 0.00 0.00 0.00 33 1017.8
20260507204542 75 178 1.7 3.5 0.00 0.00 0.00 32 1018.1
20260507203037 74 287 0.9 5.2 0.00 0.00 0.00 33 1018.2
20260507201600 73 133 0.9 7.8 0.00 0.00 0.00 35 1018.5
20260507201502 73 179 0.9 7.8 0.00 0.00 0.00 36 1018.5
20260507200038 72 322 1.7 5.2 0.00 0.00 0.00 37 1018.6
20260507194527 72 153 0.9 6.1 0.00 0.00 0.00 41 1018.7
20260507193059 71 184 0.9 4.3 0.00 0.00 0.00 39 1018.7
20260507191539 70 298 0.9 4.3 0.00 0.00 0.00 42 1019.0
20260507190016 69 302 1.7 3.5 0.00 0.00 0.00 44 1019.1
20260507184551 68 206 0.9 3.5 0.00 0.00 0.00 45 1019.3
20260507183033 67 238 1.7 5.2 0.00 0.00 0.00 46 1019.5
20260507181509 66 278 1.7 5.2 0.00 0.00 0.00 47 1019.4
20260507180047 65 257 0.9 3.5 0.00 0.00 0.00 48 1019.6
20260507174534 65 138 0.9 3.5 0.00 0.00 0.00 50 1019.8
20260507173010 64 227 1.7 5.2 0.00 0.00 0.00 50 1019.9
20260507171542 63 296 0.9 3.5 0.00 0.00 0.00 50 1019.9
20260507170017 62 302 1.7 4.3 0.00 0.00 0.00 52 1019.9
20260507164558 61 272 0.9 3.5 0.00 0.00 0.00 53 1019.9
20260507163038 61 250 1.7 2.6 0.00 0.00 0.00 52 1020.1
20260507161519 60 283 0.9 2.6 0.00 0.00 0.00 54 1020.4
20260507160101 60 253 0.9 3.5 0.00 0.00 0.00 55 1020.4
20260507154534 59 285 0.9 3.5 0.00 0.00 0.00 57 1020.4
20260507153010 58 284 0.9 3.5 0.00 0.00 0.00 60 1020.4
20260507151550 56 178 0.0 2.6 0.00 0.00 0.00 64 1020.5
20260507150037 55 191 0.9 3.5 0.00 0.00 0.00 64 1020.5
20260507144506 54 315 0.9 4.3 0.00 0.00 0.00 66 1020.6
20260507143056 54 328 0.9 4.3 0.00 0.00 0.00 68 1020.5
20260507141522 53 267 0.9 2.6 0.00 0.00 0.00 69 1020.4
20260507140004 52 236 0.9 5.2 0.00 0.00 0.00 71 1020.4
20260507134538 52 301 0.9 3.5 0.00 0.00 0.00 71 1020.3
20260507133020 52 301 0.9 4.3 0.00 0.00 0.00 71 1020.2
20260507131554 52 243 0.9 1.7 0.00 0.00 0.00 71 1020.0
20260507130041 52 259 0.0 2.6 0.00 0.00 0.00 71 1020.1
20260507124607 52 247 0.9 2.6 0.00 0.00 0.00 71 1020.1
20260507124501 52 247 0.9 2.6 0.00 0.00 0.00 71 1020.2
20260507123047 52 209 0.0 1.7 0.00 0.00 0.00 71 1020.1
20260507121520 53 235 0.0 2.6 0.00 0.00 0.00 72 1020.0
20260507120005 53 155 0.9 4.3 0.00 0.00 0.00 73 1020.0
20260507114545 53 150 0.0 1.7 0.00 0.00 0.00 73 1019.9
20260507113018 54 265 0.0 1.7 0.00 0.00 0.00 72 1019.9
20260507111555 55 273 0.0 2.6 0.00 0.00 0.00 70 1019.6
20260507111503 55 273 0.0 2.6 0.00 0.00 0.00 70 1019.6
20260507110042 55 282 0.0 2.6 0.00 0.00 0.00 70 1019.5
20260507104522 55 40 0.0 2.6 0.00 0.00 0.00 70 1019.4
20260507103100 56 266 0.0 5.2 0.00 0.00 0.00 70 1019.1
20260507103001 56 266 0.9 5.2 0.00 0.00 0.00 70 1019.1
20260507101547 56 340 0.0 7.8 0.00 0.00 0.00 71 1019.0
20260507100028 56 178 0.0 3.5 0.00 0.00 0.00 71 1018.9
20260507094512 57 128 0.9 7.0 0.00 0.00 0.00 71 1018.9
20260507093050 57 328 0.0 7.8 0.00 0.00 0.00 71 1018.8
20260507091533 57 341 0.0 3.5 0.00 0.00 0.00 70 1018.7
20260507090012 58 230 1.7 7.8 0.00 0.00 0.00 69 1018.8
20260507084550 58 248 2.6 7.0 0.00 0.00 0.00 69 1018.8
20260507083034 59 240 2.6 7.8 0.00 0.00 0.00 68 1018.8
20260507081509 59 239 0.9 4.3 0.00 0.00 0.00 67 1018.6
20260507080048 59 265 1.7 6.1 0.00 0.00 0.00 67 1018.7
20260507074506 59 261 1.7 6.1 0.00 0.00 0.00 67 1018.8
20260507073047 59 275 1.7 5.2 0.00 0.00 0.00 67 1018.7
20260507071529 60 274 1.7 6.1 0.00 0.00 0.00 67 1018.8
20260507070002 60 220 3.5 6.1 0.00 0.00 0.00 66 1018.9
20260507064550 60 244 0.9 6.1 0.00 0.00 0.00 66 1019.0
20260507063026 60 329 0.9 4.3 0.00 0.00 0.00 65 1019.1
20260507061513 60 297 1.7 3.5 0.00 0.00 0.00 64 1019.3
20260507060058 61 287 1.7 6.1 0.00 0.00 0.00 63 1019.3
20260507054538 61 285 1.7 3.5 0.00 0.00 0.00 63 1019.5
20260507053022 61 342 1.7 5.2 0.00 0.00 0.00 63 1019.8
20260507051513 61 278 1.7 4.3 0.00 0.00 0.00 63 1019.8
20260507050051 61 287 0.9 3.5 0.00 0.00 0.00 63 1019.7
20260507044542 61 274 1.7 5.2 0.00 0.00 0.00 63 1019.7
20260507043021 62 294 0.9 4.3 0.00 0.00 0.00 63 1019.6
20260507041558 62 267 0.9 3.5 0.00 0.00 0.00 64 1019.6
20260507040044 62 169 0.9 7.0 0.00 0.00 0.00 63 1019.3
20260507034524 63 263 1.7 7.0 0.00 0.00 0.00 62 1019.0
20260507033013 64 311 0.9 6.1 0.00 0.00 0.00 60 1018.8
20260507031600 65 265 2.6 7.0 0.00 0.00 0.00 58 1018.6
20260507030038 66 212 2.6 8.7 0.00 0.00 0.00 57 1018.6